Birmingham, AL

12:28 PM CDT on September 26, 2017 (GMT -0500)
Birmingham International

Weather History for KBHM - February, 2014

Change the Weather History Date:

Monday, February 24, 2014

  Actual Average Record
Temperature  
Mean Temperature 52 °F 50 °F  
Max Temperature 64 °F 61 °F 81 °F (2017)
Min Temperature 39 °F 39 °F 16 °F (1989)
Degree Days  
Heating Degree Days 13 15  
Month to date heating degree days 430 429  
Since 1 July heating degree days 2401 2134  
Growing Degree Days 2 (Base 50)    
Moisture  
Dew Point 33 °F    
Average Humidity 53    
Maximum Humidity 79    
Minimum Humidity 27    
Precipitation  
Precipitation 0.00 in 0.18 in 1.81 in (1979)
Month to date precipitation 4.92 3.85  
Year to date precipitation 6.48 8.69  
Snow  
Snow 0.00 in 0.00 in - ()
Month to date snowfall 3.0 0.1  
Since 1 July snowfall 5.0 0.8  
Snow Depth 0.00 in    
Sea Level Pressure  
Sea Level Pressure 30.14 in    
Wind  
Wind Speed 6 mph (North)    
Max Wind Speed 16 mph    
Max Gust Speed 21 mph    
Visibility 10 miles    
Events      
T = Trace of Precipitation, MM = Missing Value Source: NWS Daily Summary

Daily Weather History Graph

Daily Weather History Graph

Search for Another Location

Airport or City:

Trip Planner

Search our weather history database for the weather conditions in past years. The results will help you decide how hot, cold, wet, or windy it might be!

Date:

Astronomy

Feb. 24, 2014 Rise Set
Actual Time 6:21 AM CST 5:39 PM CST
Civil Twilight 5:56 AM CST 6:04 PM CST
Nautical Twilight 5:27 AM CST 6:33 PM CST
Astronomical Twilight 4:58 AM CST 7:02 PM CST
Moon 2:10 AM CST (2/24) 12:48 PM CST (2/24)
Length of Visible Light 12h 08m
Length of Day
11h 18m
Waning Crescent, 28% of the Moon is Illuminated
Feb 24
Waning Crescent
Mar 1
New
Mar 8
First Quarter
Mar 16
Full
Mar 23
Last Quarter

Hourly Weather History & Observations

Time (CST) Temp. Windchill Dew Point Humidity Pressure Visibility Wind Dir Wind Speed Gust Speed Precip Events Conditions
12:53 AM 48.9 °F - 37.0 °F 64% 30.06 in 10.0 mi North 5.8 mph - N/A   Clear
1:53 AM 46.9 °F - 36.0 °F 66% 30.09 in 10.0 mi North 4.6 mph - N/A   Clear
2:53 AM 46.0 °F 42.5 °F 36.0 °F 68% 30.10 in 10.0 mi North 6.9 mph - N/A   Partly Cloudy
3:53 AM 45.0 °F 40.1 °F 35.1 °F 68% 30.12 in 10.0 mi North 9.2 mph - N/A   Scattered Clouds
4:53 AM 42.1 °F 38.4 °F 34.0 °F 73% 30.16 in 10.0 mi North 5.8 mph - N/A   Partly Cloudy
5:53 AM 41.0 °F 37.1 °F 35.1 °F 79% 30.17 in 10.0 mi North 5.8 mph - N/A   Partly Cloudy
6:53 AM 41.0 °F 39.0 °F 35.1 °F 79% 30.19 in 10.0 mi North 3.5 mph - N/A   Partly Cloudy
7:53 AM 44.1 °F 39.0 °F 36.0 °F 73% 30.21 in 10.0 mi North 9.2 mph - N/A   Partly Cloudy
8:53 AM 48.0 °F - 36.0 °F 63% 30.18 in 10.0 mi Calm Calm - N/A   Partly Cloudy
9:53 AM 55.0 °F - 34.0 °F 45% 30.19 in 10.0 mi North 6.9 mph - N/A   Partly Cloudy
10:53 AM 55.9 °F - 36.0 °F 47% 30.20 in 10.0 mi North 11.5 mph - N/A   Scattered Clouds
11:53 AM 59.0 °F - 34.0 °F 39% 30.17 in 10.0 mi North 6.9 mph 18.4 mph N/A   Scattered Clouds
12:53 PM 60.1 °F - 30.9 °F 33% 30.15 in 10.0 mi NNE 9.2 mph - N/A   Mostly Cloudy
1:53 PM 62.1 °F - 30.0 °F 30% 30.14 in 10.0 mi North 13.8 mph - N/A   Mostly Cloudy
2:53 PM 62.1 °F - 28.0 °F 28% 30.13 in 10.0 mi North 11.5 mph - N/A   Mostly Cloudy
3:53 PM 59.0 °F - 28.0 °F 31% 30.13 in 10.0 mi North 8.1 mph - N/A   Overcast
4:53 PM 57.9 °F - 28.9 °F 33% 30.13 in 10.0 mi North 6.9 mph - N/A   Overcast
5:53 PM 53.1 °F - 32.0 °F 45% 30.14 in 10.0 mi North 5.8 mph - N/A   Overcast
6:53 PM 52.0 °F - 30.0 °F 43% 30.15 in 10.0 mi NNW 6.9 mph - N/A   Mostly Cloudy
7:53 PM 50.0 °F - 32.0 °F 50% 30.15 in 10.0 mi Calm Calm - N/A   Mostly Cloudy
8:53 PM 48.9 °F - 28.9 °F 46% 30.15 in 10.0 mi NNW 3.5 mph - N/A   Mostly Cloudy
9:53 PM 46.0 °F - 30.9 °F 56% 30.12 in 10.0 mi Calm Calm - N/A   Clear
10:53 PM 42.1 °F - 32.0 °F 67% 30.11 in 10.0 mi Calm Calm - N/A   Clear
11:53 PM 42.1 °F - 32.0 °F 67% 30.11 in 10.0 mi Calm Calm - N/A   Partly Cloudy